Date String (YYYY-MM-DD hh:mm:ss) UTC,Instrument flags,absolute air pressure of the measurement (hPa),sample flow rate (lpm),inlet stack bypass flow (lpm),air temperature of the measurement (°C),ambient temperature measured by the external sensor (°C),aerosol sample conditioner tube jacket temperature (°C),OPC LED temperature (°C),internal box temperature (°C),relative humidity of the measurement (%),span deviation,mass concentration of particles derived from Lorenz-Mie calculation of OPC scattering (μg/m³),mass concentration of particles derived from Lorenz-Mie calculation of OPC scattering (μg/m³),mass concentration of particles derived from Lorenz-Mie calculation of OPC scattering (μg/m³)
DateTimeUTC,F1_M11,P_M11,Q1_M11,Q2_M11,T1_M11,T2_M11,T3_M11,T4_M11,T5_M11,U1_M11,ZSPAN_M11,X0_M11,X2_M11,X1_M11
2023-08-17 17:00:00,SystemResetWarning,0835.9,5.01,000.00,027.9,025.1,000.0,036.2,029.3,33.9,0000.6,0029.17,0016.06,0014.50
2023-08-17 17:01:00,SystemResetWarning,0835.9,5.01,000.00,027.9,025.5,000.0,036.3,029.4,34.1,0000.7,0028.79,0016.05,0014.50
2023-08-17 17:02:00,SystemResetWarning,0835.9,5.00,000.00,027.9,025.8,000.0,036.3,029.5,33.6,0000.8,0027.89,0016.01,0014.49
2023-08-17 17:03:00,SystemResetWarning,0835.9,5.00,000.00,028.0,026.1,000.0,036.3,029.6,34.0,0001.0,0028.05,0015.95,0014.49
2023-08-17 17:04:00,SystemResetWarning,0835.9,5.00,000.00,028.0,026.2,000.0,036.3,029.7,33.5,0001.2,0027.95,0015.99,0014.51
2023-08-17 17:05:00,SystemResetWarning,0835.8,4.99,000.00,028.0,025.3,000.0,036.2,029.4,33.2,0001.5,0028.05,0015.98,0014.53
2023-08-17 17:06:00,SystemResetWarning,0835.8,5.01,000.00,027.9,024.2,000.0,036.1,029.3,33.2,0001.6,0027.79,0016.02,0014.55
2023-08-17 17:07:00,SystemResetWarning,0835.8,5.02,000.00,027.9,024.1,000.0,036.1,029.1,33.5,0001.7,0027.72,0016.05,0014.56
2023-08-17 17:08:00,SystemResetWarning,0835.8,4.99,000.00,027.8,024.4,000.0,036.1,029.1,33.8,0001.6,0027.84,0016.06,0014.59
2023-08-17 17:09:00,SystemResetWarning,0835.8,5.00,000.00,027.8,024.8,000.0,036.2,029.2,34.1,0001.9,0027.62,0016.09,0014.61
2023-08-17 17:10:00,SystemResetWarning,0835.8,5.01,000.00,027.8,025.2,000.0,036.2,029.3,33.9,0001.9,0027.78,0016.14,0014.62
2023-08-17 17:11:00,SystemResetWarning,0835.8,5.00,000.00,027.8,025.6,000.0,036.2,029.4,33.8,0002.0,0028.63,0016.17,0014.64
2023-08-17 17:12:00,SystemResetWarning,0835.8,5.00,000.00,027.9,025.9,000.0,036.2,029.5,33.6,0002.0,0028.02,0016.21,0014.67
2023-08-17 17:13:00,SystemResetWarning,0835.8,5.00,000.00,027.9,026.1,000.0,036.2,029.6,33.6,0002.0,0027.87,0016.23,0014.67
2023-08-17 17:14:00,SystemResetWarning,0835.8,4.99,000.00,027.9,025.3,000.0,036.2,029.4,33.7,0001.6,0026.67,0016.22,0014.68
2023-08-17 17:15:00,SystemResetWarning,0835.7,5.00,000.00,027.8,024.2,000.0,036.1,029.2,34.1,0001.6,0026.73,0016.21,0014.66
2023-08-17 17:16:00,SystemResetWarning,0835.7,5.01,000.00,027.8,024.1,000.0,036.0,029.2,34.4,0001.4,0027.02,0016.19,0014.61
2023-08-17 17:17:00,SystemResetWarning,0835.7,4.99,000.00,027.7,024.4,000.0,036.0,029.1,34.8,0001.4,0027.10,0016.15,0014.55
2023-08-17 17:18:00,SystemResetWarning,0835.7,5.00,000.00,027.7,024.8,000.0,036.1,029.2,34.1,0001.4,0027.90,0016.11,0014.51
2023-08-17 17:19:00,SystemResetWarning,0835.8,5.01,000.00,027.8,025.2,000.0,036.1,029.3,34.3,0001.5,0028.35,0016.03,0014.45
2023-08-17 17:20:00,SystemResetWarning,0835.8,5.00,000.00,027.8,025.6,000.0,036.1,029.4,34.4,0001.4,0027.94,0015.97,0014.40
2023-08-17 17:21:00,SystemResetWarning,0835.8,5.00,000.00,027.9,025.9,000.0,036.1,029.5,34.5,0001.4,0027.57,0015.89,0014.36
2023-08-17 17:22:00,SystemResetWarning,0835.6,5.00,000.00,027.9,026.1,000.0,036.2,029.6,34.1,0001.4,0025.60,0015.87,0014.32
2023-08-17 17:23:00,SystemResetWarning,0835.7,4.98,000.00,027.9,025.3,000.0,036.1,029.4,34.1,0001.2,0025.63,0015.85,0014.29
2023-08-17 17:24:00,SystemResetWarning,0835.7,5.01,000.00,027.9,024.1,000.0,036.0,029.2,34.6,0001.0,0026.46,0015.88,0014.28
2023-08-17 17:25:00,SystemResetWarning,0835.6,5.02,000.00,027.8,023.9,000.0,035.9,029.1,34.3,0001.1,0027.35,0015.92,0014.26
2023-08-17 17:26:00,SystemResetWarning,0835.6,4.99,000.00,027.7,024.3,000.0,036.0,029.0,34.4,0001.1,0028.08,0015.96,0014.27
2023-08-17 17:27:00,SystemResetWarning,0835.6,4.99,000.00,027.7,024.6,000.0,036.0,029.1,34.9,0001.1,0027.85,0015.97,0014.29
2023-08-17 17:28:00,SystemResetWarning,0835.6,5.01,000.00,027.8,025.1,000.0,036.0,029.3,34.3,0001.1,0028.43,0015.97,0014.30
2023-08-17 17:29:00,SystemResetWarning,0835.6,4.98,000.00,027.9,025.5,000.0,036.1,029.4,34.5,0001.1,0027.68,0015.97,0014.30
2023-08-17 17:30:00,SystemResetWarning,0835.6,5.01,000.00,028.0,025.8,000.0,036.1,029.5,34.2,0001.4,0027.58,0015.99,0014.30
2023-08-17 17:31:00,SystemResetWarning,0835.6,5.00,000.00,028.0,026.1,000.0,036.2,029.6,34.0,0001.5,0027.97,0016.01,0014.30
2023-08-17 17:32:00,SystemResetWarning,0835.6,4.99,000.00,028.1,026.1,000.0,036.2,029.6,33.4,0001.3,0028.88,0016.01,0014.30
2023-08-17 17:33:00,SystemResetWarning,0835.6,5.00,000.00,028.1,024.8,000.0,036.1,029.3,33.4,0001.5,0031.89,0015.99,0014.30
2023-08-17 17:34:00,SystemResetWarning,0835.5,5.02,000.00,028.0,024.0,000.0,036.0,029.1,33.8,0001.4,0033.61,0015.95,0014.27
2023-08-17 17:35:00,SystemResetWarning,0835.5,5.00,000.00,027.9,024.1,000.0,036.0,029.1,34.1,0001.5,0033.33,0015.87,0014.24
2023-08-17 17:36:00,SystemResetWarning,0835.6,5.00,000.00,027.9,024.4,000.0,036.1,029.1,34.2,0001.6,0033.38,0015.76,0014.21
2023-08-17 17:37:00,SystemResetWarning,0835.5,5.01,000.00,027.8,024.8,000.0,036.1,029.2,34.0,0001.7,0033.50,0015.67,0014.19
2023-08-17 17:38:00,SystemResetWarning,0835.5,5.00,000.00,027.9,025.3,000.0,036.1,029.3,33.8,0001.7,0035.23,0015.69,0014.21
2023-08-17 17:39:00,SystemResetWarning,0835.5,5.00,000.00,027.9,025.6,000.0,036.2,029.4,33.8,0001.2,0034.73,0015.65,0014.23
2023-08-17 17:40:00,SystemResetWarning,0835.6,5.00,000.00,027.9,026.0,000.0,036.2,029.5,34.4,0001.0,0034.88,0015.64,0014.24
2023-08-17 17:41:00,SystemResetWarning,0835.5,5.00,000.00,028.0,026.0,000.0,036.2,029.5,34.1,0000.6,0034.08,0015.57,0014.24
2023-08-17 17:42:00,SystemResetWarning,0835.5,4.99,000.00,028.0,024.8,000.0,036.1,029.3,34.0,0000.5,0033.87,0015.51,0014.23
2023-08-17 17:43:00,SystemResetWarning,0835.5,5.00,000.00,027.9,023.9,000.0,036.0,029.1,34.1,0000.3,0034.24,0015.59,0014.26
2023-08-17 17:44:00,SystemResetWarning,0835.5,5.00,000.00,027.8,024.0,000.0,036.0,029.0,34.4,0000.0,0032.36,0015.62,0014.28
2023-08-17 17:45:00,SystemResetWarning,0835.5,5.01,000.00,027.8,024.3,000.0,036.0,029.0,34.2,0000.3,0030.05,0015.70,0014.30
2023-08-17 17:46:00,SystemResetWarning,0835.5,4.99,000.00,027.8,024.8,000.0,036.1,029.1,34.0,0000.5,0029.55,0015.72,0014.34
2023-08-17 17:47:00,SystemResetWarning,0835.5,5.00,000.00,027.8,025.2,000.0,036.1,029.2,34.4,0000.6,0029.08,0015.84,0014.39
2023-08-17 17:48:00,SystemResetWarning,0835.5,5.00,000.00,027.8,025.6,000.0,036.1,029.4,34.0,0000.6,0028.70,0015.94,0014.41
2023-08-17 17:49:00,SystemResetWarning,0835.5,5.00,000.00,027.8,025.9,000.0,036.1,029.5,34.0,0000.4,0028.38,0015.95,0014.42
2023-08-17 17:50:00,SystemResetWarning,0835.5,5.00,000.00,027.9,026.0,000.0,036.1,029.5,33.9,0000.7,0028.07,0015.98,0014.45
2023-08-17 17:51:00,SystemResetWarning,0835.5,4.98,000.00,027.9,024.9,000.0,036.0,029.3,34.6,0000.5,0028.22,0016.06,0014.48
2023-08-17 17:52:00,SystemResetWarning,0835.5,5.04,000.00,027.8,024.0,000.0,036.0,029.1,34.7,0000.5,0028.83,0016.11,0014.50
2023-08-17 17:53:00,SystemResetWarning,0835.5,4.96,000.00,027.9,024.1,000.0,035.9,029.1,34.1,0000.6,0029.21,0016.21,0014.54
2023-08-17 17:54:00,SystemResetWarning,0835.4,5.02,000.00,027.9,024.4,000.0,036.0,029.1,34.2,0001.0,0029.50,0016.18,0014.54
2023-08-17 17:55:00,SystemResetWarning,0835.4,5.00,000.00,027.9,024.8,000.0,036.0,029.2,34.4,0001.0,0029.62,0016.15,0014.55
2023-08-17 17:56:00,SystemResetWarning,0835.4,4.99,000.00,027.9,025.2,000.0,036.1,029.3,34.5,0000.9,0030.37,0016.11,0014.57
2023-08-17 17:57:00,SystemResetWarning,0835.4,5.00,000.00,027.9,025.6,000.0,036.1,029.4,34.6,0000.7,0031.57,0016.12,0014.56
2023-08-17 17:58:00,SystemResetWarning,0835.3,5.00,000.00,028.0,025.9,000.0,036.2,029.5,35.3,0000.4,0032.83,0016.07,0014.54
2023-08-17 17:59:00,SystemResetWarning,0835.5,5.00,000.00,028.3,026.1,000.0,036.2,029.7,34.1,0000.1,0032.62,0016.08,0014.53
